Погода в Бенони

ЮАР     26°11′09″S   28°19′11″E
темп.,
°C
ветер,
м/с
пор.,
м/с
влажн.,
%
обл.,
%
осадки,
мм/ч
давл.,
гПа
погр.,
м
17 августа, ср
ср1723:00+13зсз383326 0.0 1021406
02:00+12сз27365 0.0 1019214
05:00+11сз253877 0.0 1019122
08:00+12ссз38365 0.0 1019237
11:00+19сз47193 0.0 1017604
14:00+22сз571427 0.0 10131801
17:00+22сз58155 0.0 10122041
20:00+19сз410200 0.0 1014458
18 августа, чт
чт1823:00+17ссз39220 0.0 1014259
02:00+15сз22250 0.0 101328
05:00+15ссз312250 0.0 1012359
08:00+16ссз514210 0.0 1013661
11:00+21сз615143 0.0 10111574
14:00+23сз71690 0.0 10082676
17:00+23сз61694 0.0 10072876
20:00+19з5911100 0.0 1010890
19 августа, пт
пт1923:00+15юз41018100 0.0 1012772
02:00+11юз51031100 0.0 1012650
05:00+8ююз585139 0.0 1015510
08:00+7юз58534 0.0 1017638
11:00+10юз610335 0.0 10181873
14:00+13юз711242 0.0 10162246
17:00+13юз610240 0.0 10161762
20:00+11юз510312 0.0 10191310
20 августа, сб
сб2023:00+9ююз510445 0.0 1021944
02:00+8юз3114316 0.0 1022765
05:00+7юз4124720 0.0 1022552
08:00+7юз514460 0.0 1024595
11:00+13юз712210 0.0 1022996
14:00+16юз711120 0.0 10191434
17:00+15ююз69160 0.0 10201516
20:00+12ююз47220 0.0 1024848
21 августа, вс
вс2123:00+10ююз38280 0.0 1025445
02:00+9ю26320 0.0 1026275
05:00+7ю25350 0.0 1027208
08:00+8ююв12320 0.0 1028216
11:00+14с22200 0.0 1027820
14:00+18ссз33140 0.0 10231496
17:00+18ссз33140 0.0 10221741
20:00+16сз37180 0.0 1024422